Location: La B�doule
(43.2468°N, 5.5934°E)
Time: 21:18:52
(UTC+00:00)

ARIANE 5 R/B - Pass Details

Date: 07 June 2020
Orbit: 748 x 796 km, 98.6° (Epoch: 04 July)

Event Time Altitude Azimuth Distance (km) Brightness Sun altitude
Rises 02:53:09 0° 9° (N) 3,218 6.7 -10.0°
Reaches altitude 10° 02:55:30 10° 5° (N) 2,284 5.8 -9.7°
Maximum altitude 03:00:23 56° 289° (WNW) 893 2.7 -9.1°
Drops below altitude 10° 03:05:14 10° 212° (SSW) 2,260 4.3 -8.4°
Enters shadow 03:05:23 - 211° (SSW) 2,320 4.4 -8.4°
